Location: Unspecified
(0.0000°N, 0.0000°E)
Time: 13:37:04
(UTC+00:00)

Courier 1B Rocket - Pass Details

Date: 25 November 2019
Orbit: 920 x 1202 km, 28.2° (Epoch: 08 December)

Event Time Altitude Azimuth Distance (km) Brightness Sun altitude
Rises 23:33:19 0° 252° (WSW) 4,091 - -68.9°
Reaches altitude 10° 23:38:17 10° 226° (SW) 3,105 - -69.1°
Maximum altitude 23:41:27 13° 201° (SSW) 2,870 - -69.1°
Drops below altitude 10° 23:44:35 10° 176° (S) 3,050 - -69.2°
Sets 23:49:24 0° 149° (SSE) 3,950 - -69.2°
